QPF
0.01 0.00 0.01 0.01 0.00 0.00 0.00 0.00 0.00 0.00 0.00 0.00 0.00 0.00 0.00 0.00 0.00 0.00 0.00 0.00 0.00 0.00 0.00 0.00 0.00 0.00 0.00 0.00 0.00 0.00 0.00 0.00 0.00 0.00 0.00 0.00 0.00 0.00 0.00 0.00 0.00 0.06 0.03
0.01 0.01 0.00 0.00 0.00 0.00 0.00 0.00 0.00 0.00 0.00 0.00 0.00 0.00 0.00 0.00 0.00 0.00 0.00 0.00 0.00 0.00 0.00 0.00 0.00 0.00 0.00 0.00 0.00 0.00 0.00 0.00 0.00 0.00 0.00 0.00 0.00 0.00 0.00 0.00 0.01 0.12 0.06
0.00 0.00 0.00 0.00 0.00 0.00 0.00 0.00 0.00 0.00 0.00 0.00 0.00 0.00 0.00 0.00 0.00 0.00 0.00 0.00 0.00 0.00 0.00 0.00 0.00 0.00 0.00 0.00 0.00 0.00 0.00 0.00 0.00 0.00 0.00 0.00 0.04 0.00 0.00 0.00 0.00 0.00 0.01
0.00 0.01 0.01 0.00 0.00 0.00 0.00 0.00 0.00 0.00 0.00 0.00 0.00 0.00 0.00 0.00 0.00 0.00 0.00 0.00 0.00 0.01 0.01 0.02 0.02 0.01 0.00 0.00 0.00 0.00 0.00 0.00 0.00 0.00 0.00 0.00 0.00 0.00 0.00 0.00 0.00 0.00 0.00
0.00 0.00 0.00 0.00 0.00 0.00 0.00 0.00 0.00 0.00 0.00 0.00 0.00 0.00 0.00 0.00 0.00 0.00 0.00 0.00 0.00 0.00 0.00 0.01 0.01 0.01 0.00 0.00 0.00 0.00 0.00 0.00 0.00 0.00 0.00 0.00 0.00 0.00 0.00 0.00 0.00 0.00 0.01
0.00 0.00 0.00 0.00 0.00 0.00 0.00 0.00 0.00 0.00 0.00 0.00 0.00 0.00 0.00 0.00 0.00 0.00 0.00 0.00 0.00 0.00 0.00 0.00 0.00 0.00 0.00 0.00 0.00 0.00 0.00 0.00 0.00 0.00 0.00 0.00 0.00 0.00 0.00 0.00 0.00 0.00 0.00
0.00 0.00 0.00 0.00 0.00 0.00 0.00 0.00 0.00 0.00 0.00 0.00 0.00 0.00 0.00 0.00 0.00 0.00 0.00 0.00 0.00 0.00 0.00 0.00 0.00 0.00 0.00 0.00 0.00 0.00 0.00 0.00 0.00 0.00 0.00 0.00 0.00 0.00 0.00 0.00 0.00 0.00 0.00
0.00 0.00 0.00 0.00 0.00 0.00 0.00 0.00 0.00 0.00 0.00 0.00 0.00 0.00 0.00 0.00 0.00 0.00 0.00 0.00 0.00 0.00 0.00 0.00 0.00 0.00 0.00 0.00 0.00 0.00 0.00 0.00 0.00 0.00 0.00 0.00 0.00 0.00 0.00 0.00 0.00 0.00 0.00
0.00 0.00 0.00 0.00 0.00 0.00 0.00 0.00 0.00 0.00 0.00 0.00 0.00 0.00 0.00 0.00 0.00 0.00 0.00 0.00 0.00 0.00 0.00 0.00 0.00 0.00 0.00 0.00 0.00 0.00 0.00 0.00 0.00 0.00 0.00 0.00 0.01 0.02 0.01 0.00 0.00 0.01 0.00
0.00 0.00 0.00 0.00 0.00 0.00 0.00 0.00 0.00 0.00 0.00 0.00 0.00 0.00 0.00 0.00 0.00 0.00 0.00 0.00 0.00 0.00 0.00 0.00 0.00 0.00 0.00 0.00 0.00 0.00 0.00 0.00 0.00 0.01 0.01 0.01 0.05 0.05 0.05 0.02 0.00 0.01 0.01
0.00 0.00 0.00 0.00 0.00 0.00 0.00 0.00 0.00 0.00 0.00 0.00 0.00 0.00 0.00 0.00 0.00 0.00 0.00 0.00 0.00 0.00 0.00 0.00 0.00 0.00 0.00 0.00 0.00 0.00 0.00 0.00 0.00 0.00 0.01 0.02 0.03 0.02 0.02 0.01 0.00 0.00 0.01
0.00 0.00 0.00 0.00 0.00 0.00 0.00 0.00 0.00 0.00 0.00 0.00 0.00 0.00 0.00 0.00 0.00 0.00 0.00 0.00 0.00 0.00 0.00 0.00 0.00 0.00 0.00 0.00 0.00 0.00 0.00 0.00 0.00 0.00 0.00 0.00 0.00 0.00 0.01 0.02 0.02 0.01 0.00
0.00 0.00 0.00 0.00 0.00 0.00 0.00 0.00 0.00 0.00 0.00 0.00 0.00 0.00 0.00 0.00 0.00 0.00 0.00 0.00 0.00 0.00 0.00 0.00 0.00 0.00 0.00 0.00 0.00 0.00 0.00 0.00 0.00 0.00 0.00 0.00 0.00 0.00 0.00 0.01 0.02 0.02 0.03
0.00 0.00 0.00 0.00 0.00 0.00 0.00 0.00 0.00 0.00 0.00 0.00 0.00 0.00 0.00 0.00 0.00 0.00 0.00 0.00 0.00 0.00 0.00 0.00 0.00 0.00 0.00 0.00 0.00 0.00 0.00 0.00 0.00 0.00 0.00 0.00 0.00 0.00 0.00 0.00 0.00 0.02 0.04
0.00 0.00 0.00 0.00 0.00 0.00 0.00 0.00 0.00 0.00 0.00 0.00 0.00 0.00 0.00 0.00 0.00 0.00 0.00 0.00 0.00 0.00 0.00 0.00 0.00 0.00 0.00 0.00 0.00 0.00 0.00 0.00 0.00 0.00 0.00 0.00 0.00 0.00 0.00 0.00 0.00 0.00 0.02
0.00 0.00 0.00 0.00 0.00 0.00 0.00 0.00 0.00 0.00 0.00 0.00 0.00 0.00 0.00 0.00 0.00 0.00 0.00 0.00 0.00 0.00 0.00 0.00 0.00 0.00 0.00 0.00 0.00 0.00 0.00 0.00 0.00 0.00 0.00 0.00 0.00 0.00 0.00 0.00 0.00 0.00 0.00
0.00 0.00 0.00 0.00 0.00 0.00 0.00 0.00 0.00 0.00 0.00 0.00 0.00 0.00 0.00 0.00 0.00 0.00 0.00 0.00 0.00 0.00 0.00 0.00 0.00 0.00 0.00 0.00 0.00 0.00 0.00 0.00 0.00 0.00 0.00 0.00 0.00 0.00 0.00 0.00 0.00 0.00 0.00
0.00 0.00 0.00 0.00 0.00 0.00 0.00 0.00 0.00 0.00 0.00 0.00 0.00 0.00 0.00 0.00 0.00 0.00 0.00 0.00 0.00 0.00 0.00 0.00 0.00 0.00 0.00 0.00 0.00 0.00 0.00 0.00 0.00 0.00 0.00 0.00 0.00 0.00 0.00 0.00 0.00 0.00 0.00
0.00 0.00 0.00 0.00 0.00 0.00 0.00 0.00 0.00 0.00 0.00 0.00 0.00 0.00 0.00 0.00 0.00 0.00 0.00 0.00 0.00 0.00 0.00 0.00 0.00 0.00 0.00 0.00 0.00 0.00 0.00 0.00 0.00 0.00 0.00 0.00 0.00 0.00 0.00 0.00 0.00 0.00 0.00
0.00 0.00 0.00 0.00 0.00 0.00 0.00 0.00 0.00 0.00 0.00 0.00 0.00 0.00 0.00 0.00 0.00 0.00 0.00 0.00 0.00 0.00 0.00 0.00 0.00 0.00 0.00 0.00 0.00 0.00 0.00 0.00 0.00 0.00 0.00 0.00 0.00 0.00 0.00 0.00 0.00 0.00 0.00
0.00 0.00 0.00 0.00 0.00 0.00 0.00 0.00 0.00 0.00 0.00 0.00 0.00 0.00 0.00 0.00 0.00 0.00 0.00 0.00 0.00 0.00 0.00 0.00 0.00 0.00 0.00 0.00 0.00 0.00 0.00 0.00 0.00 0.00 0.00 0.00 0.00 0.00 0.00 0.00 0.00 0.00 0.00
0.00 0.00 0.00 0.00 0.00 0.00 0.00 0.00 0.00 0.00 0.00 0.00 0.00 0.00 0.00 0.00 0.00 0.00 0.00 0.00 0.00 0.00 0.00 0.00 0.00 0.00 0.00 0.00 0.00 0.00 0.00 0.00 0.00 0.00 0.00 0.00 0.00 0.00 0.00 0.00 0.00 0.00 0.01
0.00 0.00 0.00 0.00 0.00 0.00 0.00 0.00 0.00 0.00 0.00 0.00 0.00 0.00 0.00 0.00 0.00 0.00 0.00 0.00 0.00 0.00 0.00 0.00 0.00 0.00 0.00 0.00 0.00 0.00 0.00 0.00 0.00 0.00 0.00 0.00 0.00 0.00 0.00 0.00 0.00 0.01 0.01
0.00 0.00 0.00 0.00 0.00 0.00 0.00 0.00 0.00 0.00 0.00 0.00 0.00 0.00 0.00 0.00 0.00 0.00 0.00 0.00 0.00 0.00 0.00 0.00 0.00 0.00 0.00 0.00 0.00 0.00 0.00 0.00 0.01 0.00 0.00 0.00 0.00 0.00 0.02 0.03 0.03 0.01 0.01
0.00 0.00 0.00 0.00 0.00 0.00 0.00 0.00 0.00 0.00 0.00 0.00 0.00 0.00 0.00 0.00 0.00 0.00 0.00 0.00 0.00 0.00 0.00 0.00 0.00 0.00 0.00 0.00 0.00 0.00 0.00 0.00 0.00 0.01 0.00 0.00 0.00 0.00 0.02 0.03 0.05 0.02 0.02
0.00 0.00 0.00 0.00 0.00 0.00 0.00 0.00 0.00 0.00 0.00 0.00 0.00 0.00 0.00 0.00 0.00 0.00 0.00 0.00 0.00 0.00 0.00 0.00 0.00 0.00 0.00 0.00 0.00 0.00 0.00 0.00 0.00 0.01 0.01 0.00 0.00 0.00 0.02 0.06 0.05 0.06 0.08
MSLP
1011.23 1012.39 1013.11 1013.33 1013.57 1013.80 1013.91 1014.14 1014.26 1014.35 1014.28 1014.33 1014.57 1014.59 1014.54 1014.56 1014.65 1014.67 1014.68 1014.75 1015.00 1014.94 1014.89 1014.87 1014.95 1015.07 1015.04 1015.03 1014.99 1014.90 1014.77 1014.70 1014.60 1014.47 1014.30 1014.23 1014.15 1014.31 1014.42 1014.40 1014.45 1014.12 1014.50
1011.71 1012.69 1013.33 1013.45 1013.67 1013.98 1014.20 1014.31 1014.50 1014.55 1014.59 1014.68 1014.73 1014.74 1014.89 1014.95 1014.98 1014.95 1014.95 1015.03 1015.12 1015.06 1015.09 1015.08 1015.06 1015.13 1015.15 1015.17 1015.06 1015.03 1014.93 1014.74 1014.72 1014.59 1014.35 1014.26 1014.11 1014.19 1014.40 1014.55 1014.67 1014.54 1014.89
1012.51 1013.08 1013.49 1013.87 1013.98 1014.15 1014.38 1014.45 1014.58 1014.69 1014.75 1014.90 1014.93 1014.97 1015.12 1015.23 1015.33 1015.44 1015.41 1015.25 1015.25 1015.24 1015.33 1015.35 1015.26 1015.24 1015.24 1015.26 1015.19 1015.16 1015.05 1014.94 1014.80 1014.63 1014.35 1013.73 1013.41 1013.94 1014.15 1014.61 1014.83 1014.91 1015.06
1013.06 1013.13 1013.56 1014.21 1014.29 1014.45 1014.51 1014.70 1014.91 1015.03 1015.19 1015.28 1015.42 1015.51 1015.55 1015.71 1015.81 1015.79 1015.74 1015.68 1015.66 1015.62 1015.53 1015.51 1015.44 1015.36 1015.38 1015.28 1015.23 1015.19 1015.13 1015.04 1014.86 1014.70 1014.00 1012.59 1012.70 1013.62 1013.81 1014.47 1014.76 1014.91 1014.99
1013.53 1013.96 1014.38 1014.48 1014.69 1014.79 1014.97 1015.28 1015.44 1015.46 1015.64 1015.82 1015.89 1015.84 1015.95 1015.99 1016.16 1016.17 1016.19 1016.19 1016.14 1016.11 1016.05 1016.03 1015.94 1015.85 1015.79 1015.63 1015.48 1015.33 1015.08 1014.94 1014.86 1014.64 1013.30 1012.28 1012.29 1012.93 1013.55 1014.15 1014.58 1014.82 1014.94
1013.84 1014.40 1014.97 1015.07 1015.23 1015.29 1015.44 1015.70 1015.88 1016.08 1016.25 1016.32 1016.50 1016.46 1016.47 1016.50 1016.57 1016.76 1016.75 1016.78 1016.65 1016.65 1016.64 1016.54 1016.35 1016.31 1016.10 1016.01 1015.88 1015.60 1015.35 1015.12 1014.87 1013.72 1012.78 1012.24 1012.65 1013.32 1013.61 1013.85 1014.15 1014.44 1014.68
1014.29 1014.74 1015.23 1015.63 1015.64 1015.69 1016.04 1016.17 1016.49 1016.63 1016.77 1017.01 1017.17 1017.05 1017.01 1016.94 1016.96 1017.00 1017.07 1017.02 1017.00 1016.85 1016.66 1016.65 1016.56 1016.42 1016.26 1016.20 1016.13 1015.92 1015.71 1015.34 1014.74 1013.69 1012.85 1012.23 1012.24 1012.87 1013.48 1013.87 1014.14 1014.21 1014.36
1014.18 1014.77 1015.38 1016.08 1016.08 1016.31 1016.46 1016.70 1016.90 1017.08 1017.31 1017.45 1017.47 1017.42 1017.35 1017.38 1017.49 1017.56 1017.60 1017.52 1017.33 1017.18 1017.21 1017.09 1016.87 1016.67 1016.40 1016.19 1016.05 1015.94 1015.80 1015.55 1014.63 1013.44 1012.67 1011.98 1011.76 1012.44 1013.02 1013.54 1013.90 1014.01 1014.18
1014.04 1014.54 1015.18 1015.91 1016.66 1016.91 1017.01 1017.22 1017.22 1017.43 1017.74 1017.76 1017.84 1017.87 1017.87 1017.82 1017.82 1017.89 1018.10 1017.99 1017.86 1017.74 1017.59 1017.39 1017.14 1016.86 1016.58 1016.24 1015.97 1015.77 1015.58 1015.26 1014.75 1013.59 1012.71 1011.96 1012.41 1012.33 1012.56 1013.12 1013.67 1013.86 1013.95
1014.42 1014.65 1014.97 1015.39 1015.81 1016.46 1017.23 1017.58 1017.59 1017.83 1017.98 1017.95 1018.14 1018.18 1018.05 1017.69 1017.77 1018.15 1018.12 1018.45 1018.31 1017.99 1017.70 1017.45 1017.18 1016.80 1016.35 1015.95 1015.69 1015.48 1015.21 1014.69 1013.61 1012.78 1012.46 1012.23 1012.44 1012.75 1012.84 1012.92 1013.30 1013.61 1013.70
1014.72 1014.84 1014.97 1015.15 1015.45 1016.24 1016.88 1017.52 1017.59 1017.64 1017.67 1017.91 1017.87 1018.11 1017.70 1017.70 1017.71 1017.47 1018.53 1018.47 1018.25 1018.05 1017.66 1017.40 1017.08 1016.71 1016.17 1015.33 1015.21 1015.18 1014.78 1013.57 1012.84 1012.67 1012.26 1011.91 1012.45 1012.71 1012.72 1012.83 1012.87 1013.20 1013.33
1014.37 1014.74 1015.06 1015.28 1015.53 1015.78 1015.99 1016.49 1016.80 1017.02 1017.42 1017.81 1017.82 1017.92 1017.72 1017.84 1018.02 1017.82 1017.92 1018.11 1017.91 1017.86 1017.36 1017.18 1016.91 1016.52 1015.97 1015.63 1015.12 1014.80 1014.30 1014.10 1013.93 1013.27 1012.55 1012.42 1012.54 1012.65 1012.89 1012.94 1012.83 1012.68 1012.77
1013.51 1014.33 1015.04 1015.39 1015.74 1015.67 1015.94 1015.88 1015.98 1016.66 1017.12 1017.72 1018.05 1018.03 1018.04 1017.80 1018.01 1017.65 1017.54 1017.48 1017.51 1017.40 1017.13 1016.96 1016.62 1016.45 1016.73 1016.43 1015.92 1015.59 1015.17 1014.86 1013.99 1013.32 1012.57 1012.44 1012.72 1012.84 1012.76 1012.85 1012.75 1012.47 1012.43
1013.32 1014.03 1014.78 1015.41 1015.65 1015.69 1015.96 1015.74 1016.23 1016.53 1017.11 1017.45 1018.21 1018.34 1018.07 1017.81 1018.07 1017.92 1017.77 1017.58 1017.58 1017.51 1017.49 1017.28 1016.92 1016.98 1016.76 1016.49 1016.12 1015.82 1015.51 1015.12 1014.43 1013.88 1013.30 1012.91 1012.88 1012.86 1012.78 1012.72 1012.66 1012.45 1012.09
1012.91 1013.78 1014.70 1015.27 1015.77 1015.98 1016.13 1016.43 1016.56 1016.92 1017.25 1017.60 1017.96 1018.64 1018.49 1018.22 1018.49 1018.26 1018.21 1017.91 1017.83 1017.81 1017.62 1017.42 1017.12 1017.05 1016.66 1016.26 1016.03 1015.72 1015.33 1015.03 1014.64 1014.15 1013.55 1013.20 1013.00 1012.89 1012.78 1012.57 1012.37 1012.20 1011.89
1012.54 1013.72 1014.52 1015.04 1015.70 1016.14 1016.33 1016.83 1016.95 1017.27 1017.55 1017.65 1018.20 1018.72 1019.04 1018.81 1018.97 1018.59 1018.34 1018.22 1018.26 1018.37 1018.27 1017.84 1017.64 1017.18 1016.75 1016.34 1015.91 1015.56 1015.23 1014.82 1014.43 1014.05 1013.50 1013.00 1012.81 1012.60 1012.44 1012.27 1012.01 1011.81 1011.58
1012.25 1013.47 1014.33 1015.05 1015.68 1016.27 1016.61 1016.91 1017.07 1017.33 1017.35 1017.58 1018.23 1019.09 1019.27 1019.28 1019.23 1019.10 1018.66 1018.62 1018.94 1018.77 1018.38 1017.96 1017.72 1017.31 1016.87 1016.33 1015.93 1015.42 1014.96 1014.44 1013.92 1013.64 1013.30 1012.83 1012.30 1012.07 1011.86 1011.59 1011.40 1011.19 1010.98
1011.82 1013.18 1014.24 1014.84 1015.65 1016.19 1016.51 1016.83 1017.14 1017.32 1017.23 1017.63 1018.24 1018.82 1019.27 1019.52 1019.70 1019.24 1018.97 1019.07 1019.59 1018.93 1018.56 1018.33 1018.07 1017.68 1017.24 1016.66 1015.98 1015.46 1014.90 1014.26 1013.62 1013.21 1012.82 1012.42 1012.01 1011.75 1011.41 1011.16 1010.78 1010.62 1010.29
1011.64 1013.00 1013.92 1014.66 1015.38 1016.06 1016.65 1017.02 1017.48 1017.59 1017.37 1017.83 1018.30 1018.80 1019.52 1019.88 1020.04 1019.65 1019.41 1019.65 1019.81 1019.11 1018.87 1018.81 1018.54 1018.14 1017.51 1016.79 1016.19 1015.70 1014.82 1013.85 1013.48 1012.62 1012.27 1012.11 1011.82 1012.21 1011.97 1011.41 1010.83 1010.09 1009.47
1011.43 1012.84 1013.72 1014.45 1015.28 1015.85 1016.38 1016.84 1017.11 1017.51 1017.76 1018.04 1018.60 1019.42 1019.89 1019.99 1020.16 1020.01 1019.69 1020.08 1020.01 1019.43 1019.26 1019.22 1018.93 1018.49 1018.04 1017.51 1016.92 1015.66 1014.94 1013.66 1012.82 1012.34 1011.99 1012.30 1011.82 1012.32 1012.67 1012.35 1011.35 1009.65 1008.52
1011.29 1012.36 1013.20 1013.99 1015.02 1015.46 1015.86 1016.18 1016.59 1017.08 1017.88 1018.44 1019.16 1019.91 1020.00 1020.16 1020.44 1020.35 1020.11 1020.15 1020.18 1019.89 1019.83 1019.57 1019.33 1018.84 1018.13 1017.96 1017.05 1016.03 1014.19 1012.77 1012.52 1012.71 1013.11 1012.16 1012.18 1012.69 1012.99 1012.71 1012.08 1010.49 1008.73
1010.85 1011.88 1012.69 1013.81 1014.78 1015.06 1015.27 1015.60 1016.12 1017.00 1017.71 1018.45 1019.28 1019.98 1020.15 1020.42 1020.72 1020.58 1020.77 1020.41 1020.56 1020.28 1020.03 1020.02 1019.74 1019.39 1018.76 1018.68 1018.52 1017.37 1015.13 1013.18 1013.37 1014.14 1013.05 1012.85 1013.09 1013.33 1013.75 1013.02 1012.20 1010.85 1009.09
1010.31 1011.35 1012.23 1013.24 1014.30 1014.69 1015.10 1016.05 1016.58 1017.27 1018.20 1018.70 1019.28 1019.55 1020.45 1020.71 1021.01 1021.04 1021.07 1020.99 1020.68 1020.46 1020.35 1020.41 1020.35 1020.08 1019.66 1019.44 1019.83 1019.92 1018.55 1017.08 1016.99 1014.46 1014.14 1014.24 1013.92 1013.53 1014.00 1013.26 1012.18 1011.00 1010.22
1009.80 1011.00 1011.85 1012.77 1013.83 1014.65 1015.42 1015.68 1016.12 1016.46 1016.94 1017.62 1018.69 1019.62 1020.29 1020.96 1021.09 1021.33 1021.31 1021.22 1021.01 1020.78 1020.82 1020.72 1020.89 1020.62 1020.50 1020.36 1020.46 1020.58 1020.93 1020.65 1019.14 1016.68 1015.04 1015.49 1014.90 1014.37 1013.99 1013.33 1012.46 1011.60 1010.96
1009.53 1010.51 1011.44 1012.52 1013.53 1014.66 1015.10 1015.34 1015.89 1016.16 1017.04 1018.16 1019.01 1019.86 1020.30 1020.84 1021.22 1021.41 1021.49 1021.30 1021.24 1021.07 1021.14 1021.06 1021.09 1020.96 1020.94 1021.16 1021.26 1021.26 1021.41 1020.83 1020.09 1019.20 1016.81 1015.96 1016.02 1015.07 1014.17 1013.50 1012.72 1012.19 1011.49
1008.98 1010.23 1011.19 1012.24 1013.20 1014.32 1014.99 1015.47 1015.81 1016.49 1017.23 1018.06 1018.97 1019.47 1019.90 1020.32 1020.69 1021.54 1021.62 1021.53 1021.50 1021.36 1021.17 1020.94 1020.92 1020.96 1021.17 1021.77 1022.14 1022.06 1021.82 1021.25 1020.54 1020.04 1018.93 1017.73 1016.61 1015.12 1014.02 1013.43 1013.13 1012.77 1012.32
Thickness
5759 5750 5743 5739 5735 5731 5728 5724 5722 5720 5720 5717 5713 5714 5715 5715 5714 5714 5714 5713 5708 5708 5708 5708 5706 5704 5705 5704 5705 5705 5706 5706 5706 5707 5708 5708 5709 5707 5705 5704 5704 5705 5704
5755 5745 5739 5735 5731 5727 5723 5720 5717 5715 5714 5712 5711 5711 5709 5708 5708 5707 5707 5706 5704 5705 5704 5704 5703 5701 5701 5701 5702 5701 5701 5703 5703 5703 5706 5706 5707 5706 5703 5701 5700 5700 5698
5744 5737 5733 5729 5726 5723 5719 5716 5714 5712 5711 5708 5708 5706 5704 5702 5701 5700 5700 5702 5701 5701 5699 5698 5699 5699 5698 5697 5698 5698 5698 5698 5699 5701 5703 5706 5709 5706 5704 5699 5696 5695 5693
5735 5733 5728 5723 5721 5718 5716 5712 5709 5707 5706 5704 5701 5700 5699 5697 5696 5695 5695 5696 5695 5695 5695 5695 5695 5695 5694 5694 5694 5694 5695 5695 5696 5697 5702 5712 5712 5705 5704 5698 5694 5692 5691
5728 5722 5718 5717 5714 5712 5709 5705 5703 5702 5699 5697 5695 5695 5693 5692 5690 5690 5689 5689 5689 5688 5688 5688 5689 5689 5689 5691 5691 5691 5693 5694 5694 5695 5704 5712 5711 5708 5703 5697 5694 5690 5688
5721 5715 5709 5708 5706 5704 5702 5699 5697 5694 5692 5690 5687 5687 5686 5685 5684 5682 5682 5681 5682 5682 5682 5683 5685 5684 5685 5685 5685 5687 5689 5689 5691 5698 5705 5710 5706 5703 5700 5698 5694 5691 5689
5712 5707 5703 5700 5699 5698 5694 5693 5689 5687 5685 5681 5678 5678 5678 5678 5678 5678 5677 5678 5678 5679 5681 5681 5681 5681 5682 5681 5681 5682 5684 5686 5689 5696 5702 5707 5707 5703 5697 5694 5692 5691 5688
5709 5703 5698 5692 5692 5689 5688 5685 5683 5680 5677 5675 5673 5672 5672 5672 5671 5670 5670 5671 5673 5674 5674 5674 5675 5676 5678 5679 5679 5680 5680 5682 5687 5695 5701 5706 5708 5703 5698 5694 5690 5689 5687
5704 5700 5695 5688 5683 5681 5680 5677 5676 5673 5670 5669 5666 5665 5664 5665 5665 5664 5663 5664 5665 5666 5666 5667 5669 5670 5672 5675 5676 5678 5679 5682 5684 5692 5697 5703 5699 5700 5698 5694 5689 5687 5686
5698 5694 5691 5686 5683 5678 5673 5670 5669 5667 5665 5664 5661 5659 5659 5662 5662 5659 5659 5657 5657 5659 5661 5662 5664 5666 5669 5672 5674 5675 5676 5680 5688 5694 5696 5697 5694 5692 5690 5691 5687 5684 5683
5690 5688 5685 5683 5681 5673 5669 5665 5665 5664 5663 5660 5659 5656 5658 5657 5658 5659 5652 5652 5653 5654 5656 5658 5660 5662 5665 5672 5672 5672 5674 5681 5687 5687 5691 5693 5689 5687 5685 5684 5684 5681 5680
5686 5683 5680 5677 5675 5672 5670 5667 5665 5663 5659 5655 5654 5653 5654 5652 5651 5652 5651 5650 5650 5651 5653 5654 5655 5657 5660 5662 5665 5667 5669 5670 5671 5675 5680 5683 5683 5680 5678 5676 5677 5679 5678
5690 5682 5675 5672 5668 5668 5665 5666 5666 5660 5656 5652 5649 5648 5647 5647 5646 5647 5648 5647 5647 5647 5649 5649 5651 5651 5648 5649 5652 5653 5655 5656 5661 5665 5671 5672 5672 5670 5670 5669 5670 5672 5672
5684 5679 5672 5666 5664 5662 5659 5661 5657 5655 5650 5648 5642 5640 5641 5642 5639 5640 5640 5641 5640 5639 5638 5639 5640 5638 5638 5639 5640 5642 5643 5644 5648 5651 5655 5658 5658 5659 5659 5659 5660 5662 5665
5681 5674 5666 5662 5657 5654 5652 5650 5649 5647 5644 5642 5638 5633 5632 5633 5630 5631 5630 5631 5630 5629 5629 5629 5630 5629 5630 5631 5631 5632 5633 5633 5635 5637 5641 5643 5644 5644 5645 5647 5649 5651 5655
5676 5666 5660 5657 5651 5646 5644 5641 5641 5638 5637 5636 5631 5627 5623 5623 5620 5621 5621 5621 5619 5617 5616 5616 5616 5618 5619 5620 5621 5621 5622 5623 5624 5625 5628 5632 5634 5635 5635 5636 5637 5639 5642
5670 5661 5655 5649 5643 5639 5637 5634 5633 5631 5632 5630 5624 5617 5614 5612 5611 5610 5611 5609 5605 5605 5605 5606 5605 5606 5607 5608 5609 5609 5610 5611 5612 5612 5612 5614 5618 5619 5620 5624 5627 5629 5631
5666 5655 5648 5644 5636 5632 5630 5627 5625 5624 5626 5622 5617 5611 5606 5603 5600 5600 5599 5596 5591 5592 5593 5592 5592 5592 5593 5594 5596 5596 5595 5596 5598 5598 5597 5597 5598 5599 5602 5605 5610 5613 5618
5660 5649 5642 5637 5631 5625 5621 5618 5615 5615 5617 5613 5608 5603 5597 5593 5589 5588 5587 5582 5578 5580 5578 5575 5574 5575 5577 5579 5579 5578 5578 5581 5579 5580 5579 5576 5576 5571 5572 5577 5585 5593 5600
5654 5643 5636 5630 5624 5619 5615 5612 5610 5607 5605 5603 5597 5590 5586 5582 5578 5576 5574 5568 5565 5566 5563 5560 5558 5558 5558 5558 5557 5562 5561 5565 5567 5563 5561 5552 5551 5546 5540 5541 5551 5567 5581
5647 5638 5632 5626 5617 5614 5611 5609 5606 5603 5596 5591 5584 5577 5574 5571 5566 5563 5560 5556 5552 5551 5547 5545 5541 5540 5542 5539 5541 5543 5551 5554 5551 5538 5528 5529 5524 5516 5509 5512 5518 5532 5550
5641 5633 5627 5618 5610 5609 5608 5606 5602 5595 5589 5581 5573 5566 5564 5560 5553 5550 5545 5543 5538 5535 5532 5527 5525 5522 5521 5517 5512 5515 5530 5538 5526 5505 5508 5502 5497 5490 5485 5491 5499 5510 5525
5636 5627 5621 5614 5605 5603 5601 5593 5589 5583 5575 5569 5563 5560 5551 5546 5540 5536 5530 5527 5524 5520 5517 5511 5507 5503 5500 5495 5485 5475 5478 5489 5475 5487 5479 5475 5476 5475 5468 5474 5483 5493 5500
5631 5622 5615 5609 5601 5595 5589 5587 5583 5581 5576 5569 5558 5549 5541 5533 5528 5522 5517 5513 5510 5506 5501 5496 5488 5485 5480 5475 5466 5456 5443 5435 5441 5459 5464 5452 5454 5457 5456 5460 5466 5472 5479
5623 5616 5608 5602 5594 5586 5582 5581 5575 5574 5565 5554 5546 5537 5531 5523 5516 5510 5505 5502 5498 5493 5487 5482 5476 5470 5465 5457 5448 5439 5428 5425 5424 5422 5436 5440 5433 5441 5444 5445 5452 5455 5461
5617 5608 5602 5595 5588 5580 5574 5570 5567 5560 5552 5545 5536 5530 5523 5516 5508 5498 5494 5490 5485 5480 5477 5473 5467 5461 5452 5440 5429 5422 5417 5413 5411 5405 5407 5413 5421 5428 5435 5436 5439 5441 5445